Voltar ao catálogo

ONEWEB-0226

AtivoComunicaçõesPO
NORAD 48793·PAYLOAD·🇬🇧 United Kingdom

Lançado May 28, 2021 de Vostochny Cosmodrome

Loading…

Próximas Passagens (próximas 24 horas)

TLE

AtualizadoSource: CelesTrak SupGP

Época: Sep 14, 2026, 17:30 UTC

1 48793C 21045AC  26257.72935602  .00001789  00000+0  47580-2 0  2576
2 48793  87.8989 241.3434 0002268  81.8163 311.9274 13.15544803    10

Acompanhe ONEWEB-0226 em tempo real com AllMySat

Download on the App Store